This demonstration page uses our WeatherBlox Daily Observations layout. Learn more.

Left ArrowRight Arrow

39.01783, -85.05884

Hourly Observations for January 8, 2020

Temp ( °F °C ) Dew Point ( °F °C ) Humidity (%) Winds ( mph kmh ) Pressure ( in mb ) Visibility ( mi km ) Precip ( " mm )
12:52 am 00:52 Cloudy 38 3.3 27 -2.8 65 65 W 13 20 30.10 1019 10 16 0.00 0.00
1:52 am 01:52 Mostly Cloudy 37 2.8 26 -3.3 65 65 WSW 7 11 30.09 1019 10 16 0.00 0.00
2:52 am 02:52 Mostly Clear 36 2.2 25 -3.9 64 64 WSW 10 17 30.11 1020 10 16 0.00 0.00
3:52 am 03:52 Mostly Clear 36 2.2 24 -4.4 62 62 W 10 17 30.12 1020 10 16 0.00 0.00
4:52 am 04:52 Clear 33 0.6 23 -5 66 66 W 9 15 30.13 1020 10 16 0.00 0.00
5:52 am 05:52 Clear 34 1.1 23 -5 64 64 W 12 19 30.16 1021 10 16 0.00 0.00
6:52 am 06:52 Clear 34 1.1 22 -5.6 61 61 W 16 26 30.20 1023 10 16 0.00 0.00
7:52 am 07:52 Clear 32 0 17 -8.3 54 54 WNW 16 26 30.24 1024 10 16 0.00 0.00
8:52 am 08:52 Sunny 33 0.6 14 -10 45 45 WNW 15 24 30.28 1026 10 16 0.00 0.00
9:52 am 09:52 Sunny 34 1.1 10 -12.2 37 37 W 20 31 30.32 1027 10 16 0.00 0.00
10:52 am 10:52 Sunny 35 1.7 7 -13.9 31 31 WNW 17 28 30.35 1028 10 16 0.00 0.00
11:52 am 11:52 Sunny 37 2.8 10 -12.2 33 33 WNW 13 20 30.36 1028 10 16 0.00 0.00
12:52 pm 12:52 Sunny 37 2.8 9 -12.8 31 31 NW 12 19 30.36 1028 10 16 0.00 0.00
1:52 pm 13:52 Sunny 38 3.3 8 -13.3 29 29 NW 9 15 30.37 1028 10 16 0.00 0.00
2:52 pm 14:52 Mostly Sunny 39 3.9 10 -12.2 30 30 NW 13 20 30.38 1029 10 16 0.00 0.00
3:52 pm 15:52 Sunny 39 3.9 9 -12.8 29 29 Calm 30.39 1029 10 16 0.00 0.00
4:52 pm 16:52 Mostly Sunny 38 3.3 10 -12.2 31 31 N 3 6 30.41 1030 10 16 0.00 0.00
5:52 pm 17:52 Mostly Clear 33 0.6 13 -10.6 43 43 NW 7 11 30.44 1031 10 16 0.00 0.00
6:52 pm 18:52 Mostly Clear 33 0.6 13 -10.6 43 43 N 7 11 30.45 1031 10 16 0.00 0.00
7:52 pm 19:52 Mostly Clear 32 0 13 -10.6 45 45 NE 6 9 30.46 1031 10 16 0.00 0.00
8:52 pm 20:52 Mostly Clear 31 -0.6 14 -10 49 49 ENE 8 13 30.46 1031 10 16 0.00 0.00
9:52 pm 21:52 Clear 29 -1.7 15 -9.4 56 56 E 6 9 30.46 1031 10 16 0.00 0.00
10:52 pm 22:52 Clear 29 -1.7 15 -9.4 56 56 E 6 9 30.46 1032 10 16 0.00 0.00
11:52 pm 23:52 Mostly Clear 29 -1.7 15 -9.4 56 56 E 10 17 30.44 1031 10 16 0.00 0.00

Powered by AerisWeather